Aspen, CO

1:31 PM MDT on October 22, 2017 (GMT -0600)
Aspen-Pitkin County / Sardy Field

Weather History for KASE - November, 2012

Change the Weather History Date:

Tuesday, November 27, 2012

  Actual Average Record
Temperature  
Mean Temperature 30 °F 24 °F  
Max Temperature 47 °F 36 °F 61 °F (1998)
Min Temperature 12 °F 13 °F -5 °F (1992)
Degree Days  
Heating Degree Days 35 41  
Month to date heating degree days 798 946  
Since 1 July heating degree days 1801 2201  
Cooling Degree Days 0 0  
Month to date cooling degree days 0 0  
Year to date cooling degree days 106 39  
Moisture  
Dew Point 4 °F    
Average Humidity 41    
Maximum Humidity 67    
Minimum Humidity 14    
Precipitation  
Precipitation 0.00 in 0.03 in 0.55 in (1990)
Month to date precipitation 0.23 1.27  
Year to date precipitation 11.74 16.02  
Sea Level Pressure  
Sea Level Pressure 30.33 in    
Wind  
Wind Speed 6 mph (SSW)    
Max Wind Speed 12 mph    
Max Gust Speed 15 mph    
Visibility 10 miles    
Events      
T = Trace of Precipitation, MM = Missing Value Source: NWS Daily Summary

Daily Weather History Graph

Daily Weather History Graph

Search for Another Location

Airport or City:

Trip Planner

Search our weather history database for the weather conditions in past years. The results will help you decide how hot, cold, wet, or windy it might be!

Date:

Astronomy

Nov. 27, 2012 Rise Set
Actual Time 7:04 AM MST 4:45 PM MST
Civil Twilight 6:35 AM MST 5:15 PM MST
Nautical Twilight 6:02 AM MST 5:48 PM MST
Astronomical Twilight 5:29 AM MST 6:20 PM MST
Moon 4:19 PM MST (11/27) 6:12 AM MST (11/27)
Length of Visible Light 10h 40m
Length of Day
9h 41m
Waxing Gibbous, 99% of the Moon is Illuminated
Nov 27
Waxing Gibbous
Nov 28
Full
Dec 6
Last Quarter
Dec 13
New
Dec 19
First Quarter

Hourly Weather History & Observations

Time (MST) Temp. Windchill Dew Point Humidity Pressure Visibility Wind Dir Wind Speed Gust Speed Precip Events Conditions
12:53 AM 17.1 °F 6.6 °F 7.0 °F 65% 30.27 in 10.0 mi SSW 8.1 mph - N/A   Clear
1:53 AM 21.0 °F 12.4 °F 6.1 °F 53% 30.25 in 10.0 mi SSW 6.9 mph - N/A   Clear
2:53 AM 15.1 °F 6.4 °F 5.0 °F 64% 30.29 in 10.0 mi SSW 5.8 mph - N/A   Clear
3:53 AM 12.9 °F 5.2 °F 3.0 °F 65% 30.29 in 10.0 mi SSW 4.6 mph - N/A   Clear
4:53 AM 15.1 °F 6.4 °F 1.9 °F 56% 30.35 in 10.0 mi South 5.8 mph - N/A   Clear
5:53 AM 15.1 °F 5.2 °F 1.0 °F 54% 30.37 in 10.0 mi SSW 6.9 mph - N/A   Clear
6:53 AM 15.1 °F 5.2 °F 1.0 °F 54% 30.40 in 10.0 mi SSW 6.9 mph - N/A   Clear
7:53 AM 19.0 °F 12.3 °F 1.9 °F 47% 30.41 in 10.0 mi South 4.6 mph - N/A   Clear
8:53 AM 30.0 °F - 1.9 °F 30% 30.35 in 10.0 mi Calm Calm - N/A   Clear
9:53 AM 37.0 °F - -5.1 °F 17% 30.32 in 10.0 mi Calm Calm - N/A   Clear
10:53 AM 39.9 °F 35.1 °F -0.0 °F 19% 30.29 in 10.0 mi North 6.9 mph - N/A   Clear
1:53 PM 46.9 °F - 1.9 °F 16% 30.22 in 10.0 mi NNW 5.8 mph - N/A   Clear
2:53 PM 46.0 °F 43.1 °F 3.9 °F 18% 30.24 in 10.0 mi NW 5.8 mph - N/A   Clear
3:53 PM 42.1 °F - 6.1 °F 23% 30.28 in 10.0 mi Calm Calm - N/A   Clear
4:53 PM 33.1 °F 26.9 °F 7.0 °F 34% 30.35 in 10.0 mi SSW 6.9 mph - N/A   Clear
5:53 PM 27.0 °F 18.0 °F 8.1 °F 45% 30.40 in 10.0 mi SSW 9.2 mph - N/A   Clear
6:53 PM 25.0 °F 17.1 °F 8.1 °F 49% 30.43 in 10.0 mi South 6.9 mph - N/A   Clear
7:53 PM 24.1 °F 15.2 °F 8.1 °F 51% 30.42 in 10.0 mi SSW 8.1 mph - N/A   Clear
8:53 PM 23.0 °F 14.7 °F 9.0 °F 55% 30.36 in 10.0 mi South 6.9 mph - N/A   Clear
9:53 PM 18.0 °F 12.7 °F 7.0 °F 62% 30.37 in 10.0 mi SSW 3.5 mph - N/A   Clear
10:53 PM 19.9 °F 12.1 °F 7.0 °F 57% 30.35 in 10.0 mi South 5.8 mph - N/A   Clear
11:53 PM 19.0 °F 11.1 °F 7.0 °F 59% 30.34 in 10.0 mi South 5.8 mph - N/A   Clear